Location: Heilwood
(40.6210°N, 78.9150°W)
Time: 11:17:25
(UTC-04:00)

Daily predictions for brighter satellites

Satellite Brightness Start Highest point End
(mag) Time Altitude Azimuth Time Altitude Azimuth Time Altitude Azimuth
ATLAS 3B R/B 4.5 19:18:30 10° WSW 19:25:19 34° NW 19:31:56 10° NNE
Meteor 2-5 Rocket 4.2 19:19:49 10° NNW 19:25:24 67° W 19:30:52 10° S
CZ-2C R/B 3.7 19:20:43 10° S 19:25:28 47° W 19:30:07 10° NNW
NOAA 12 4.4 19:21:32 10° SE 19:26:30 45° ENE 19:31:31 10° N
Aureole 2 Rocket 3.0 19:24:44 10° SSW 19:29:08 84° ESE 19:33:26 10° NNE
ATLAS CENTAUR R/B 3.4 19:27:21 10° SSW 19:31:51 66° ESE 19:45:45 10° NE
Cosmos 2333 Rocket 4.0 19:29:56 10° SW 19:35:12 36° WNW 19:40:30 10° N
SAR-Lupe-1 4.1 19:32:32 10° SSE 19:36:01 55° ENE 19:39:31 10° N
Okean 3 Rocket 3.7 19:31:50 10° N 19:36:23 86° W 19:40:56 10° S
SJ-6B 2.9 19:33:37 10° SSE 19:37:30 56° ENE 19:41:31 10° N
Meteor 1-29 4.3 19:37:59 10° NE 19:40:41 21° E 19:43:22 10° SE
Helios 1A 3.8 19:37:10 10° SE 19:40:50 30° ENE 19:44:31 10° N
FREGAT/IRIS 3.0 19:38:01 10° SSE 19:40:58 42° ENE 19:43:55 10° N
Resurs 01 Rocket 2.2 19:38:29 10° SE 19:42:34 36° ENE 19:46:39 10° N
Cosmos 1674 4.4 19:42:23 10° NE 19:44:46 15° ENE 19:46:25 12° E
NOSS 3-2 (A) 3.6 19:39:46 10° SW 19:45:50 83° NW 19:52:28 10° NNE
Cosmos 1758 3.7 19:46:07 10° SSE 19:49:59 44° E 19:53:54 10° NNE
Cosmos 1452 Rocket 3.6 19:45:45 10° NNW 19:50:58 60° ENE 19:56:08 10° SSE
Cosmos 1484 Rocket 4.0 19:48:37 10° S 19:52:18 47° W 19:56:06 10° NNW
Timation 1 Rocket 4.4 19:49:31 10° NNW 19:55:31 84° WSW 20:01:29 10° SSE
ATLAS 5 CENTAUR R/B 1.8 19:50:47 10° SSW 19:55:31 84° ESE 20:00:42 10° NE
Cosmos 2237 Rocket 4.3 19:51:06 10° WSW 19:56:00 29° NW 20:00:55 10° N
Abrixas 3.2 19:53:16 10° SSW 19:56:04 36° SE 19:57:41 20° E
Nadezhda 4 Rocket 4.3 19:54:06 10° N 20:00:04 44° ENE 20:05:56 10° SSE
Cosmos 1346 3.8 19:58:36 10° NNE 20:01:17 30° ENE 20:02:37 21° ESE
COSMO-SKYMED 1 4.2 19:58:29 10° N 20:02:30 38° WNW 20:06:31 10° SW
Meteor 2-12 Rocket 4.5 19:58:03 10° S 20:04:03 59° E 20:10:07 10° NNE
Meteor 1-21 Rocket 4.2 20:02:15 10° N 20:07:45 61° ENE 20:13:12 10° SSE
Cosmos 468 4.5 20:02:46 10° S 20:07:56 62° ESE 20:13:06 10° NNE
Cosmos 1092 Rocket 4.5 20:02:17 10° N 20:07:58 37° ENE 20:13:35 10° SE
GP-B 4.4 20:05:14 10° NE 20:08:19 19° E 20:08:19 19° E
ASTEX 1 3.9 20:07:17 10° NNE 20:11:49 36° E 20:16:18 10° SSE
Cosmos 1420 Rocket 4.2 20:06:55 10° N 20:12:06 51° ENE 20:16:34 14° SE
SL-16 R/B 3.5 20:11:17 10° SW 20:16:41 43° WNW 20:22:07 10° N
CENTAUR R/B 2.9 20:12:03 10° S 20:17:27 36° ESE 20:23:23 10° NE
Helios 1B rocket 2.3 20:13:58 10° NNE 20:18:05 81° ESE 20:22:12 10° S
Cosmos 1544 3.0 20:15:31 10° S 20:19:12 66° E 20:22:56 10° NNE
METEOR-M 4.2 20:15:08 10° S 20:20:28 79° WSW 20:25:52 10° NNW
Cosmos 1766 Rocket 4.0 20:17:37 10° NNW 20:21:57 65° W 20:26:14 10° S
Cosmos 1634 Rocket 4.4 20:17:35 10° SSE 20:23:13 37° E 20:28:50 10° NNE
NOSS 3-2 (C) 4.1 20:18:55 10° SW 20:24:55 58° NW 20:31:30 10° NNE
CZ-2D R/B 3.6 20:24:44 33° ESE 20:25:53 43° ENE 20:29:36 10° N
Spot 2 Rocket 3.6 20:22:29 10° S 20:27:31 75° WSW 20:32:34 10° NNW
OAO 3 Rocket 3.9 20:23:39 10° WSW 20:28:07 42° S 20:30:04 28° SE
Cosmos 1048 Rocket 3.9 20:25:33 10° S 20:30:48 66° ESE 20:36:01 10° NNE
Cosmos 1269 Rocket 3.9 20:26:04 10° SSW 20:31:19 78° ESE 20:36:37 10° NNE
FENGYUN 3A 3.6 20:28:50 10° SSE 20:34:09 70° ENE 20:39:32 10° N
Cosmos-2242 3.5 20:30:16 10° SSW 20:34:34 62° W 20:38:57 10° N
Cosmos 2034 Rocket 4.4 20:31:01 10° SSW 20:37:13 65° W 20:43:32 10° N
Envisat 4.4 20:39:20 22° NE 20:39:20 22° NE 20:42:29 10° NNE
H-2A R/B 2.7 20:39:09 48° SE 20:40:01 63° ENE 20:43:52 10° N
Gbstr 26 Del rocket 3.4 20:37:35 10° SSW 20:41:53 50° SE 20:42:57 42° E
Cosmos 1953 3.7 20:39:31 10° SSW 20:43:16 39° WNW 20:47:01 10° N
Cosmos 2151 3.9 20:39:44 10° N 20:42:41 32° NE 20:42:41 32° NE
Cosmos 1174 4.2 20:39:50 10° S 20:44:14 47° SE 20:44:14 47° SE
ISS -3.0 20:41:23 10° SW 20:44:06 58° SSW 20:44:06 58° SSW
ALOS 2.2 20:42:16 15° SSE 20:46:06 86° W 20:50:47 10° NNW
BREEZE-M DEB (TANK) 3.8 20:37:15 10° W 20:50:06 57° N 20:52:03 35° ENE
Cosmos 1842 Rocket 3.5 20:49:58 10° S 20:54:18 81° W 20:58:40 10° N
Cosmos 1500 Rocket 3.6 20:50:41 10° N 20:55:08 83° W 20:57:01 34° S
Cosmos 158 Rocket 3.7 20:51:07 10° S 20:55:56 65° ESE 21:00:46 10° NNE
USA 215 3.4 20:50:26 10° NE 20:56:57 73° NW 21:03:27 10° WSW
Cosmos 1943 Rocket 3.2 20:53:39 10° N 20:58:07 29° NE 20:58:07 29° NE
Cosmos 2369 Rocket 2.1 20:52:58 10° NNW 20:58:37 65° ENE 20:59:45 52° ESE
Cosmos 1943 3.0 20:53:15 10° SSW 20:58:50 71° ESE 21:04:27 10° NNE
GPS 2-04 Rocket1 4.1 20:56:19 10° SW 20:58:12 24° SSW 20:58:12 24° SSW
Cosmos 1470 3.3 21:01:30 10° SSW 21:05:20 57° W 21:09:10 10° N
Cosmos 2263 4.3 21:00:01 10° NNW 21:05:42 54° ENE 21:05:59 53° ENE
Cosmos 1733 3.6 21:08:47 62° WNW 21:08:47 62° WNW 21:12:26 10° N
Cosmos 1627 Rocket 4.4 21:03:22 10° N 21:09:35 72° E 21:11:13 50° SSE
SL-8 R/B 3.8 21:07:00 10° WSW 21:11:46 68° NNW 21:12:17 62° NNE
SeaSat 1 3.3 21:15:13 36° SSW 21:15:13 36° SSW 21:18:07 10° SSW
ERS-1 Rocket 3.6 21:15:22 43° NNE 21:15:22 43° NNE 21:19:04 10° N
Resurs 01 Rocket 4.1 21:15:50 10° SW 21:19:07 20° W 21:22:26 10° NW
Cosmos 1674 4.3 21:16:59 10° NNW 21:20:31 34° W 21:21:24 30° WSW
Cosmos 1110 Rocket 4.2 21:17:50 10° NNW 21:22:20 58° NNE 21:22:20 58° NNE
Meteor 1-16 Rocket 4.3 21:36:59 64° NNW 21:36:59 64° NNW 21:41:40 10° N
Meteor 1-11 4.3 21:34:32 10° NNW 21:40:07 76° WNW 21:40:07 76° WNW
ATLAS 5 CENTAUR R/B 4.5 21:37:37 10° WNW 21:40:58 18° NW 21:44:31 10° N
Cosmos 839 Rocket 4.2 21:36:04 10° NW 21:43:32 71° WSW 21:44:15 65° SSW
Cosmos 2279 Rocket 4.0 21:46:27 71° N 21:46:27 71° N 21:51:58 10° N
Cosmos 1655 Rocket 4.3 21:49:41 10° NNW 21:55:49 63° W 21:55:58 62° W
CENTAUR R/B 3.5 22:02:05 10° WSW 22:07:56 43° NW 22:14:29 10° NNE
Cosmos 1943 Rocket 4.2 22:37:09 10° NW 22:39:39 24° NW 22:39:39 24° NW
